Time,TemperatureF,DewpointF,PressureIn,WindDirection,WindDirectionDegrees,WindSpeedMPH,WindSpeedGustMPH,Humidity,HourlyPrecipIn,Conditions,Clouds,dailyrainin,SoftwareType,DateUTC
2013-09-17 00:01:00,39.7,34.0,30.32,North,354,1.0,2.0,79,0.00,,,0.00,weatherlink.com 1.10,2013-09-17 04:01:00,
2013-09-17 00:16:00,39.8,34.0,30.32,NW,311,0.0,5.0,80,0.00,,,0.00,weatherlink.com 1.10,2013-09-17 04:16:00,
2013-09-17 00:31:00,38.5,35.0,30.33,NE,46,0.0,1.0,86,0.00,,,0.00,weatherlink.com 1.10,2013-09-17 04:31:00,
2013-09-17 00:46:00,37.3,34.0,30.33,NE,45,0.0,1.0,88,0.00,,,0.00,weatherlink.com 1.10,2013-09-17 04:46:00,
2013-09-17 01:01:00,36.7,34.0,30.34,NE,46,0.0,1.0,89,0.00,,,0.00,weatherlink.com 1.10,2013-09-17 05:01:00,
2013-09-17 01:16:00,36.5,34.0,30.34,NE,39,0.0,0.0,90,0.00,,,0.00,weatherlink.com 1.10,2013-09-17 05:16:00,
2013-09-17 01:31:00,36.5,34.0,30.35,NE,45,0.0,1.0,91,0.00,,,0.00,weatherlink.com 1.10,2013-09-17 05:31:00,
2013-09-17 01:46:00,36.0,34.0,30.35,ENE,68,0.0,1.0,91,0.00,,,0.00,weatherlink.com 1.10,2013-09-17 05:46:00,
2013-09-17 02:01:00,35.7,34.0,30.35,ENE,68,0.0,1.0,92,0.00,,,0.00,weatherlink.com 1.10,2013-09-17 06:01:00,
2013-09-17 02:16:00,35.4,33.0,30.35,ENE,68,1.0,1.0,92,0.00,,,0.00,weatherlink.com 1.10,2013-09-17 06:16:00,
2013-09-17 02:32:00,35.5,34.0,30.35,ENE,68,0.0,1.0,93,0.00,,,0.00,weatherlink.com 1.10,2013-09-17 06:32:00,
2013-09-17 02:47:00,35.5,34.0,30.36,ENE,68,0.0,1.0,93,0.00,,,0.00,weatherlink.com 1.10,2013-09-17 06:47:00,
2013-09-17 03:02:00,35.0,33.0,30.36,ENE,68,0.0,1.0,93,0.00,,,0.00,weatherlink.com 1.10,2013-09-17 07:02:00,
2013-09-17 03:17:00,35.0,34.0,30.36,ENE,68,0.0,1.0,94,0.00,,,0.00,weatherlink.com 1.10,2013-09-17 07:17:00,
2013-09-17 03:32:00,35.2,34.0,30.36,NNE,27,0.0,1.0,94,0.00,,,0.00,weatherlink.com 1.10,2013-09-17 07:32:00,
2013-09-17 03:47:00,35.2,33.0,30.36,NNE,27,0.0,1.0,93,0.00,,,0.00,weatherlink.com 1.10,2013-09-17 07:47:00,
2013-09-17 04:02:00,35.1,34.0,30.37,NE,42,0.0,1.0,94,0.00,,,0.00,weatherlink.com 1.10,2013-09-17 08:02:00,
2013-09-17 04:17:00,35.5,34.0,30.37,NNE,27,0.0,1.0,94,0.00,,,0.00,weatherlink.com 1.10,2013-09-17 08:17:00,
2013-09-17 04:32:00,35.9,34.0,30.37,NE,38,0.0,1.0,94,0.00,,,0.00,weatherlink.com 1.10,2013-09-17 08:32:00,
2013-09-17 04:47:00,35.8,34.0,30.38,NE,38,0.0,1.0,94,0.00,,,0.00,weatherlink.com 1.10,2013-09-17 08:47:00,
2013-09-17 05:02:00,35.8,34.0,30.38,NE,38,0.0,1.0,94,0.00,,,0.00,weatherlink.com 1.10,2013-09-17 09:02:00,
2013-09-17 05:17:00,35.6,34.0,30.39,NE,38,0.0,1.0,94,0.00,,,0.00,weatherlink.com 1.10,2013-09-17 09:17:00,
2013-09-17 05:32:00,35.4,34.0,30.39,NE,37,1.0,1.0,94,0.00,,,0.00,weatherlink.com 1.10,2013-09-17 09:32:00,
2013-09-17 05:47:00,35.6,34.0,30.40,NE,38,1.0,1.0,95,0.00,,,0.00,weatherlink.com 1.10,2013-09-17 09:47:00,
2013-09-17 06:02:00,35.8,34.0,30.41,NE,38,0.0,0.0,94,0.00,,,0.00,weatherlink.com 1.10,2013-09-17 10:02:00,
2013-09-17 06:17:00,35.6,34.0,30.41,NE,38,0.0,1.0,94,0.00,,,0.00,weatherlink.com 1.10,2013-09-17 10:17:00,
2013-09-17 06:32:00,35.4,34.0,30.42,NE,38,0.0,1.0,94,0.00,,,0.00,weatherlink.com 1.10,2013-09-17 10:32:00,
2013-09-17 06:47:00,35.7,34.0,30.43,NE,39,0.0,1.0,94,0.00,,,0.00,weatherlink.com 1.10,2013-09-17 10:47:00,
2013-09-17 07:02:00,35.2,34.0,30.43,NE,39,1.0,1.0,94,0.00,,,0.00,weatherlink.com 1.10,2013-09-17 11:02:00,
2013-09-17 07:17:00,35.1,34.0,30.44,NE,39,0.0,1.0,94,0.00,,,0.00,weatherlink.com 1.10,2013-09-17 11:17:00,
2013-09-17 07:32:00,34.7,33.0,30.44,NE,38,0.0,0.0,94,0.00,,,0.00,weatherlink.com 1.10,2013-09-17 11:32:00,
2013-09-17 07:47:00,35.3,34.0,30.43,NE,38,0.0,1.0,94,0.00,,,0.00,weatherlink.com 1.10,2013-09-17 11:47:00,
2013-09-17 08:02:00,36.0,35.0,30.44,NE,38,0.0,0.0,94,0.00,,,0.00,weatherlink.com 1.10,2013-09-17 12:02:00,
2013-09-17 08:17:00,36.7,35.0,30.45,NE,38,0.0,1.0,94,0.00,,,0.00,weatherlink.com 1.10,2013-09-17 12:17:00,
2013-09-17 08:32:00,37.8,36.0,30.45,North,358,0.0,2.0,93,0.00,,,0.00,weatherlink.com 1.10,2013-09-17 12:32:00,
2013-09-17 08:47:00,38.8,37.0,30.46,North,360,0.0,1.0,92,0.00,,,0.00,weatherlink.com 1.10,2013-09-17 12:47:00,
2013-09-17 09:02:00,40.5,37.0,30.47,NNW,338,0.0,2.0,87,0.00,,,0.00,weatherlink.com 1.10,2013-09-17 13:02:00,
2013-09-17 09:17:00,41.5,36.0,30.47,WNW,287,0.0,4.0,82,0.00,,,0.00,weatherlink.com 1.10,2013-09-17 13:17:00,
2013-09-17 09:32:00,43.2,38.0,30.48,WSW,253,3.0,3.0,81,0.00,,,0.00,weatherlink.com 1.10,2013-09-17 13:32:00,
2013-09-17 09:47:00,44.9,38.0,30.48,ENE,61,0.0,5.0,77,0.00,,,0.00,weatherlink.com 1.10,2013-09-17 13:47:00,
2013-09-17 10:03:00,45.4,38.0,30.49,NE,38,1.0,5.0,76,0.00,,,0.00,weatherlink.com 1.10,2013-09-17 14:03:00,
2013-09-17 10:18:00,45.9,40.0,30.49,North,359,1.0,2.0,81,0.00,,,0.00,weatherlink.com 1.10,2013-09-17 14:18:00,
2013-09-17 10:33:00,46.4,40.0,30.48,NNW,333,0.0,4.0,77,0.00,,,0.00,weatherlink.com 1.10,2013-09-17 14:33:00,
2013-09-17 10:48:00,46.9,40.0,30.48,WSW,250,1.0,1.0,78,0.00,,,0.00,weatherlink.com 1.10,2013-09-17 14:48:00,
2013-09-17 11:03:00,47.7,39.0,30.48,NNW,342,0.0,2.0,73,0.00,,,0.00,weatherlink.com 1.10,2013-09-17 15:03:00,
2013-09-17 11:18:00,48.6,39.0,30.48,SSW,204,0.0,1.0,70,0.00,,,0.00,weatherlink.com 1.10,2013-09-17 15:18:00,
2013-09-17 11:33:00,49.5,38.0,30.47,NW,316,0.0,4.0,66,0.00,,,0.00,weatherlink.com 1.10,2013-09-17 15:33:00,
2013-09-17 11:48:00,50.9,42.0,30.48,East,91,1.0,1.0,72,0.00,,,0.00,weatherlink.com 1.10,2013-09-17 15:48:00,
2013-09-17 12:03:00,52.0,42.0,30.47,SE,129,2.0,4.0,70,0.00,,,0.00,weatherlink.com 1.10,2013-09-17 16:03:00,
2013-09-17 12:33:00,54.0,42.0,30.46,SSW,205,0.0,3.0,64,0.00,,,0.00,weatherlink.com 1.10,2013-09-17 16:33:00,
2013-09-17 12:48:00,53.8,41.0,30.46,NNW,328,0.0,9.0,62,0.00,,,0.00,weatherlink.com 1.10,2013-09-17 16:48:00,
2013-09-17 13:03:00,54.3,45.0,30.46,West,259,0.0,2.0,70,0.00,,,0.00,weatherlink.com 1.10,2013-09-17 17:03:00,
2013-09-17 13:18:00,54.8,43.0,30.45,NW,308,2.0,3.0,64,0.00,,,0.00,weatherlink.com 1.10,2013-09-17 17:18:00,
2013-09-17 13:33:00,54.8,43.0,30.44,ESE,121,1.0,4.0,65,0.00,,,0.00,weatherlink.com 1.10,2013-09-17 17:33:00,
2013-09-17 13:48:00,54.7,44.0,30.44,West,264,0.0,4.0,67,0.00,,,0.00,weatherlink.com 1.10,2013-09-17 17:48:00,
2013-09-17 14:03:00,54.9,46.0,30.43,WSW,258,0.0,3.0,73,0.00,,,0.00,weatherlink.com 1.10,2013-09-17 18:03:00,
2013-09-17 14:18:00,55.0,44.0,30.43,North,5,4.0,5.0,67,0.00,,,0.00,weatherlink.com 1.10,2013-09-17 18:18:00,
2013-09-17 14:33:00,54.4,43.0,30.42,NNW,329,0.0,4.0,65,0.00,,,0.00,weatherlink.com 1.10,2013-09-17 18:33:00,
2013-09-17 14:48:00,54.2,44.0,30.42,WNW,300,0.0,4.0,68,0.00,,,0.00,weatherlink.com 1.10,2013-09-17 18:48:00,
2013-09-17 15:03:00,55.1,46.0,30.41,ESE,117,0.0,3.0,72,0.00,,,0.00,weatherlink.com 1.10,2013-09-17 19:03:00,
2013-09-17 15:18:00,55.1,44.0,30.41,WSW,255,0.0,2.0,66,0.00,,,0.00,weatherlink.com 1.10,2013-09-17 19:18:00,
2013-09-17 15:33:00,55.0,44.0,30.40,SSE,167,2.0,6.0,66,0.00,,,0.00,weatherlink.com 1.10,2013-09-17 19:33:00,
2013-09-17 15:48:00,54.5,44.0,30.39,NNW,329,2.0,6.0,68,0.00,,,0.00,weatherlink.com 1.10,2013-09-17 19:48:00,
2013-09-17 16:04:00,54.4,44.0,30.39,WNW,295,2.0,3.0,68,0.00,,,0.00,weatherlink.com 1.10,2013-09-17 20:04:00,
2013-09-17 16:19:00,54.2,43.0,30.39,NNW,345,1.0,4.0,67,0.00,,,0.00,weatherlink.com 1.10,2013-09-17 20:19:00,
2013-09-17 16:34:00,54.2,44.0,30.38,North,349,2.0,5.0,69,0.00,,,0.00,weatherlink.com 1.10,2013-09-17 20:34:00,
2013-09-17 16:49:00,54.5,43.0,30.38,North,349,2.0,3.0,66,0.00,,,0.00,weatherlink.com 1.10,2013-09-17 20:49:00,
2013-09-17 17:04:00,54.6,45.0,30.38,NNW,346,0.0,2.0,69,0.00,,,0.00,weatherlink.com 1.10,2013-09-17 21:04:00,
2013-09-17 17:19:00,54.2,45.0,30.37,NNE,18,0.0,1.0,71,0.00,,,0.00,weatherlink.com 1.10,2013-09-17 21:19:00,
2013-09-17 17:34:00,53.8,46.0,30.37,NNE,14,0.0,1.0,75,0.00,,,0.00,weatherlink.com 1.10,2013-09-17 21:34:00,
2013-09-17 17:49:00,53.2,46.0,30.37,East,96,0.0,0.0,76,0.00,,,0.00,weatherlink.com 1.10,2013-09-17 21:49:00,
2013-09-17 18:04:00,52.5,45.0,30.37,NW,319,0.0,2.0,77,0.00,,,0.00,weatherlink.com 1.10,2013-09-17 22:04:00,
2013-09-17 18:19:00,51.4,45.0,30.37,NW,319,0.0,0.0,79,0.00,,,0.00,weatherlink.com 1.10,2013-09-17 22:19:00,
2013-09-17 18:34:00,50.3,45.0,30.37,NW,319,0.0,0.0,81,0.00,,,0.00,weatherlink.com 1.10,2013-09-17 22:34:00,
2013-09-17 18:49:00,49.2,44.0,30.36,NW,319,0.0,0.0,83,0.00,,,0.00,weatherlink.com 1.10,2013-09-17 22:49:00,
2013-09-17 19:04:00,47.5,44.0,30.36,NW,319,0.0,0.0,87,0.00,,,0.00,weatherlink.com 1.10,2013-09-17 23:04:00,
2013-09-17 19:19:00,46.4,43.0,30.35,North,357,0.0,1.0,88,0.00,,,0.00,weatherlink.com 1.10,2013-09-17 23:19:00,
2013-09-17 19:34:00,45.4,42.0,30.36,North,356,0.0,1.0,89,0.00,,,0.00,weatherlink.com 1.10,2013-09-17 23:34:00,
2013-09-17 19:49:00,44.6,42.0,30.36,North,358,0.0,1.0,90,0.00,,,0.00,weatherlink.com 1.10,2013-09-17 23:49:00,
2013-09-17 20:04:00,44.0,41.0,30.36,North,9,0.0,1.0,90,0.00,,,0.00,weatherlink.com 1.10,2013-09-18 00:04:00,
2013-09-17 20:19:00,44.0,42.0,30.36,North,8,1.0,1.0,91,0.00,,,0.00,weatherlink.com 1.10,2013-09-18 00:19:00,
2013-09-17 20:34:00,44.2,42.0,30.36,North,9,1.0,1.0,92,0.00,,,0.00,weatherlink.com 1.10,2013-09-18 00:34:00,
2013-09-17 20:49:00,44.0,42.0,30.36,North,8,0.0,1.0,91,0.00,,,0.00,weatherlink.com 1.10,2013-09-18 00:49:00,
2013-09-17 21:04:00,44.1,42.0,30.36,North,9,0.0,1.0,91,0.00,,,0.00,weatherlink.com 1.10,2013-09-18 01:04:00,
2013-09-17 21:19:00,44.0,42.0,30.36,North,9,1.0,1.0,91,0.00,,,0.00,weatherlink.com 1.10,2013-09-18 01:19:00,
2013-09-17 21:34:00,44.1,42.0,30.36,North,9,1.0,1.0,92,0.00,,,0.00,weatherlink.com 1.10,2013-09-18 01:34:00,
2013-09-17 21:49:00,43.8,41.0,30.36,North,9,1.0,1.0,91,0.00,,,0.00,weatherlink.com 1.10,2013-09-18 01:49:00,
2013-09-17 22:04:00,43.8,41.0,30.35,North,9,1.0,1.0,91,0.00,,,0.00,weatherlink.com 1.10,2013-09-18 02:04:00,
2013-09-17 22:19:00,43.6,41.0,30.35,North,9,0.0,1.0,91,0.00,,,0.00,weatherlink.com 1.10,2013-09-18 02:19:00,
2013-09-17 22:34:00,43.6,42.0,30.35,North,9,1.0,1.0,92,0.00,,,0.00,weatherlink.com 1.10,2013-09-18 02:34:00,
2013-09-17 22:49:00,43.6,42.0,30.35,NE,44,0.0,1.0,92,0.00,,,0.00,weatherlink.com 1.10,2013-09-18 02:49:00,
2013-09-17 23:04:00,43.5,41.0,30.35,NE,44,1.0,1.0,92,0.00,,,0.00,weatherlink.com 1.10,2013-09-18 03:04:00,
2013-09-17 23:19:00,43.5,41.0,30.34,NE,44,1.0,1.0,92,0.00,,,0.00,weatherlink.com 1.10,2013-09-18 03:19:00,
2013-09-17 23:34:00,43.5,41.0,30.34,NE,44,0.0,1.0,92,0.00,,,0.00,weatherlink.com 1.10,2013-09-18 03:34:00,
2013-09-17 23:49:00,43.3,41.0,30.34,NE,55,0.0,1.0,92,0.00,,,0.00,weatherlink.com 1.10,2013-09-18 03:49:00,